Regional Weather Roundup
Issued by NWS

Home | Current Version | Previous Version | Text Only | Print | Product List | Glossary On
Versions: 1 2 3 4 5 6 7 8 9 10 11 12 13 14 15 16 17 18 19 20 21 22 23 24 25 26 27 28 29 30 31 32 33 34 35 36 37 38 39 40 41 42 43 44 45 46 47 48 49 50
000
ASUS45 KBOI 311910
RWRID

IDAHO REGIONAL WEATHER ROUNDUP
NATIONAL WEATHER SERVICE BOISE ID
100 PM MDT FRI JUL 31 2015

NOTE: "FAIR" INDICATES FEW OR NO CLOUDS BELOW 12000 FEET
WITH NO SIGNIFICANT WEATHER AND/OR OBSTRUCTIONS TO VISIBILITY

IDZ012-014-312000-
SOUTHWEST IDAHO


CITY           SKY/WX    TMP DP  RH WIND       PRES   REMARKS
BOISE          SUNNY     91  37  15 VRB3      30.16F
CALDWELL       SUNNY     90  39  17 SE3       30.15F
MOUNTAIN HOME  SUNNY     89  33  13 N2        30.16F
$$

IDZ016-017-312000-
SOUTHCENTRAL IDAHO


CITY           SKY/WX    TMP DP  RH WIND       PRES   REMARKS
BURLEY         SUNNY     86  36  16 N5        30.23F
JEROME         SUNNY     86  17   8 S6        30.25F
TWIN FALLS     SUNNY     89  35  14 N7        30.23F
$$

IDZ019>023-312000-
SOUTHEAST IDAHO


CITY           SKY/WX    TMP DP  RH WIND       PRES   REMARKS
IDAHO FALLS    SUNNY     85  36  17 VRB6      30.28F
POCATELLO      SUNNY     86  42  21 VRB6      30.27F
REXBURG        SUNNY     84  34  16 W3        30.29F
$$

IDZ006-010-011-018-031-032-312000-
CENTRAL IDAHO MOUNTAINS


CITY           SKY/WX    TMP DP  RH WIND       PRES   REMARKS
MCCALL         SUNNY     85  31  14 S7        30.28F
HAILEY         MOSUNNY   81  39  22 SE9       30.33F
STANLEY          N/A     83  27  13 VRB3      30.41F
SALMON         SUNNY     79  46  31 CALM      30.23F
CHALLIS        SUNNY     83  34  17 CALM      30.30F
$$

IDZ002-004-006-007-026-312000-
NORTHERN IDAHO


CITY           SKY/WX    TMP DP  RH WIND       PRES   REMARKS
LEWISTON       MOSUNNY   93  40  15 VRB3      30.06F
LOWELL           N/A     84  48  28 N5        30.09F
COEUR D`ALENE  SUNNY     90  39  17 S6        30.09F
MULLAN PASS    SUNNY     77  27  15 CALM      30.36F
$$


USA.gov is the U.S. government's official web portal to all federal, state and local government web resources and services.